• în Republica Moldova
  • Lista ţărilor
  • Pe 7 zile
  • Temperatura apei
  • Hartă satelitară
  • Meteo pe hartă
  • Widget-uri
  • user-avatar
    Intrare

    Meteo pe oră la Lenkoran

    Astăzi, 20 Mai, Duminică

    Timp Temperatura Precipitaţii Vânt Presiune Umiditate
    00:00 +12°C° 0 mm 1 m/s 635 mmHg 67%
    01:00 +12°C° 0 mm 1 m/s 635 mmHg 68%
    02:00 +12°C° 0 mm 1 m/s 635 mmHg 69%
    03:00 +11°C° 0 mm 1 m/s 634 mmHg 72%
    04:00 +13°C° 0 mm 1 m/s 635 mmHg 68%
    05:00 +14°C° 0 mm 1 m/s 635 mmHg 65%
    06:00 +15°C° 0 mm 1 m/s 636 mmHg 61%
    07:00 +18°C° 0 mm 1 m/s 636 mmHg 55%
    08:00 +19°C° 0 mm 1 m/s 636 mmHg 49%
    09:00 +20°C° 0 mm 2 m/s 637 mmHg 43%
    10:00 +20°C° 0 mm 2 m/s 637 mmHg 41%
    11:00 +21°C° 0 mm 2 m/s 637 mmHg 40%
    12:00 +22°C° 0 mm 3 m/s 637 mmHg 39%
    13:00 +22°C° 0,2 mm 3 m/s 636 mmHg 39%
    14:00 +21°C° 0,2 mm 3 m/s 636 mmHg 40%
    15:00 +21°C° 0 mm 3 m/s 636 mmHg 39%
    16:00 +20°C° 0,3 mm 2 m/s 636 mmHg 44%
    17:00 +19°C° 0,3 mm 2 m/s 635 mmHg 49%
    18:00 +18°C° 0,3 mm 2 m/s 635 mmHg 54%
    19:00 +17°C° 0,2 mm 2 m/s 635 mmHg 56%
    20:00 +16°C° 0,2 mm 1 m/s 635 mmHg 59%
    21:00 +15°C° 0,2 mm 1 m/s 634 mmHg 62%
    22:00 +14°C° 0,1 mm 1 m/s 634 mmHg 63%
    23:00 +14°C° 0,1 mm 1 m/s 634 mmHg 64%

    Mâine, 21 Mai, Luni

    Timp Temperatura Precipitaţii Vânt Presiune Umiditate
    00:00 +14°C° 0,1 mm 1 m/s 634 mmHg 65%
    01:00 +14°C° 0,2 mm 1 m/s 634 mmHg 68%
    02:00 +14°C° 0,2 mm 1 m/s 634 mmHg 70%
    03:00 +12°C° 0,2 mm 0 m/s 634 mmHg 73%
    04:00 +13°C° 0,1 mm 0 m/s 634 mmHg 70%
    05:00 +14°C° 0,1 mm 0 m/s 635 mmHg 67%
    06:00 +15°C° 0,1 mm 0 m/s 635 mmHg 65%
    07:00 +16°C° 0 mm 0 m/s 635 mmHg 59%
    08:00 +19°C° 0 mm 1 m/s 636 mmHg 54%
    09:00 +21°C° 0 mm 1 m/s 636 mmHg 48%
    10:00 +21°C° 0,4 mm 1 m/s 636 mmHg 47%
    11:00 +21°C° 0,4 mm 2 m/s 636 mmHg 46%
    12:00 +23°C° 0,4 mm 2 m/s 636 mmHg 44%
    13:00 +21°C° 0,7 mm 2 m/s 636 mmHg 45%
    14:00 +21°C° 0,7 mm 2 m/s 636 mmHg 47%
    15:00 +21°C° 0,7 mm 2 m/s 635 mmHg 48%
    16:00 +20°C° 0,3 mm 2 m/s 635 mmHg 52%
    17:00 +19°C° 0,3 mm 2 m/s 635 mmHg 56%
    18:00 +18°C° 0,3 mm 2 m/s 635 mmHg 61%
    19:00 +17°C° 0,3 mm 2 m/s 635 mmHg 63%
    20:00 +16°C° 0,3 mm 1 m/s 635 mmHg 66%
    21:00 +15°C° 0,3 mm 1 m/s 635 mmHg 69%
    22:00 +15°C° 0,7 mm 1 m/s 635 mmHg 72%
    23:00 +15°C° 0,7 mm 1 m/s 635 mmHg 74%

    Poimâine, 22 Mai, Marţi

    Timp Temperatura Precipitaţii Vânt Presiune Umiditate
    00:00 +15°C° 0,7 mm 1 m/s 635 mmHg 76%
    01:00 +14°C° 0,1 mm 1 m/s 635 mmHg 77%
    02:00 +14°C° 0,1 mm 1 m/s 635 mmHg 77%
    03:00 +14°C° 0,1 mm 1 m/s 635 mmHg 77%
    04:00 +14°C° 0,1 mm 1 m/s 635 mmHg 76%
    05:00 +15°C° 0,1 mm 1 m/s 635 mmHg 75%
    06:00 +15°C° 0,1 mm 1 m/s 636 mmHg 73%
    07:00 +18°C° 0 mm 1 m/s 636 mmHg 67%
    08:00 +18°C° 0 mm 2 m/s 637 mmHg 60%
    09:00 +19°C° 0 mm 2 m/s 637 mmHg 53%
    10:00 +20°C° 0 mm 3 m/s 637 mmHg 49%
    11:00 +20°C° 0 mm 3 m/s 638 mmHg 44%
    12:00 +21°C° 0 mm 3 m/s 638 mmHg 40%
    13:00 +21°C° 0,2 mm 3 m/s 637 mmHg 39%
    14:00 +21°C° 0,2 mm 3 m/s 637 mmHg 38%
    15:00 +20°C° 0,2 mm 4 m/s 637 mmHg 37%
    16:00 +19°C° 0,2 mm 3 m/s 637 mmHg 41%
    17:00 +18°C° 0,2 mm 2 m/s 636 mmHg 46%
    18:00 +18°C° 0,2 mm 1 m/s 636 mmHg 50%
    19:00 +16°C° 0,1 mm 1 m/s 636 mmHg 49%
    20:00 +15°C° 0,1 mm 2 m/s 636 mmHg 47%
    21:00 +14°C° 0,1 mm 2 m/s 636 mmHg 46%
    22:00 +13°C° 0 mm 2 m/s 636 mmHg 45%
    23:00 +13°C° 0 mm 1 m/s 636 mmHg 43%

    23 Mai, Miercuri

    Timp Temperatura Precipitaţii Vânt Presiune Umiditate
    00:00 +12°C° 0 mm 1 m/s 636 mmHg 42%
    01:00 +12°C° 0 mm 1 m/s 636 mmHg 42%
    02:00 +12°C° 0 mm 2 m/s 636 mmHg 42%
    03:00 +12°C° 0 mm 2 m/s 635 mmHg 42%
    04:00 +13°C° 0 mm 2 m/s 636 mmHg 42%
    05:00 +14°C° 0 mm 2 m/s 636 mmHg 43%
    06:00 +15°C° 0 mm 2 m/s 636 mmHg 43%
    07:00 +16°C° 0 mm 2 m/s 637 mmHg 40%
    08:00 +18°C° 0 mm 2 m/s 637 mmHg 37%
    09:00 +19°C° 0 mm 3 m/s 638 mmHg 33%
    10:00 +20°C° 0 mm 3 m/s 638 mmHg 32%
    11:00 +21°C° 0 mm 3 m/s 638 mmHg 31%
    12:00 +21°C° 0 mm 4 m/s 638 mmHg 30%
    13:00 +21°C° 0 mm 4 m/s 637 mmHg 30%
    14:00 +21°C° 0 mm 4 m/s 637 mmHg 31%
    15:00 +21°C° 0 mm 4 m/s 637 mmHg 31%
    16:00 +20°C° 0 mm 3 m/s 636 mmHg 35%
    17:00 +18°C° 0 mm 3 m/s 636 mmHg 39%
    18:00 +17°C° 0 mm 3 m/s 635 mmHg 44%
    19:00 +15°C° 0 mm 2 m/s 635 mmHg 44%
    20:00 +14°C° 0 mm 2 m/s 635 mmHg 43%
    21:00 +12°C° 0 mm 2 m/s 634 mmHg 43%
    22:00 +12°C° 0 mm 2 m/s 634 mmHg 41%
    23:00 +12°C° 0 mm 2 m/s 634 mmHg 39%

    24 Mai, Joi

    Timp Temperatura Precipitaţii Vânt Presiune Umiditate
    00:00 +12°C° 0 mm 2 m/s 634 mmHg 37%
    01:00 +10°C° 0 mm 2 m/s 633 mmHg 36%
    02:00 +10°C° 0 mm 2 m/s 633 mmHg 34%
    03:00 +9°C° 0 mm 2 m/s 632 mmHg 33%
    04:00 +10°C° 0 mm 2 m/s 633 mmHg 34%
    05:00 +12°C° 0 mm 2 m/s 633 mmHg 35%
    06:00 +13°C° 0 mm 2 m/s 633 mmHg 36%
    07:00 +15°C° 0 mm 2 m/s 634 mmHg 33%
    08:00 +16°C° 0 mm 2 m/s 634 mmHg 30%
    09:00 +18°C° 0 mm 2 m/s 635 mmHg 26%
    10:00 +18°C° 0,1 mm 3 m/s 635 mmHg 28%
    11:00 +19°C° 0,1 mm 3 m/s 635 mmHg 29%
    12:00 +19°C° 0,1 mm 3 m/s 634 mmHg 30%
    13:00 +19°C° 0,1 mm 3 m/s 634 mmHg 34%
    14:00 +18°C° 0,1 mm 3 m/s 634 mmHg 38%
    15:00 +18°C° 0,1 mm 3 m/s 633 mmHg 42%
    16:00 +17°C° 0,1 mm 3 m/s 633 mmHg 48%
    17:00 +16°C° 0,1 mm 2 m/s 632 mmHg 53%
    18:00 +15°C° 0,1 mm 2 m/s 632 mmHg 59%
    19:00 +14°C° 0 mm 2 m/s 632 mmHg 61%
    20:00 +13°C° 0 mm 1 m/s 632 mmHg 63%
    21:00 +11°C° 0 mm 1 m/s 632 mmHg 66%
    22:00 +11°C° 0,1 mm 1 m/s 631 mmHg 62%
    23:00 +10°C° 0,1 mm 2 m/s 631 mmHg 58%

    25 Mai, Vineri

    Timp Temperatura Precipitaţii Vânt Presiune Umiditate
    00:00 +10°C° 0,1 mm 2 m/s 631 mmHg 55%
    01:00 +10°C° 0,1 mm 2 m/s 630 mmHg 54%
    02:00 +10°C° 0,1 mm 2 m/s 630 mmHg 54%
    03:00 +10°C° 0,1 mm 1 m/s 630 mmHg 54%
    04:00 +11°C° 0 mm 1 m/s 630 mmHg 53%
    05:00 +12°C° 0 mm 1 m/s 630 mmHg 52%
    06:00 +13°C° 0 mm 1 m/s 631 mmHg 51%
    07:00 +15°C° 0 mm 1 m/s 631 mmHg 47%
    08:00 +16°C° 0 mm 1 m/s 632 mmHg 44%
    09:00 +19°C° 0 mm 1 m/s 632 mmHg 40%
    10:00 +19°C° 0 mm 2 m/s 632 mmHg 39%
    11:00 +20°C° 0 mm 2 m/s 632 mmHg 39%
    12:00 +20°C° 0 mm 2 m/s 632 mmHg 38%
    13:00 +21°C° 0,1 mm 2 m/s 632 mmHg 38%
    14:00 +21°C° 0,1 mm 2 m/s 632 mmHg 38%
    15:00 +21°C° 0,1 mm 2 m/s 631 mmHg 38%
    16:00 +20°C° 0 mm 2 m/s 631 mmHg 42%
    17:00 +19°C° 0 mm 2 m/s 631 mmHg 46%
    18:00 +18°C° 0 mm 2 m/s 631 mmHg 50%
    19:00 +16°C° 0,1 mm 2 m/s 631 mmHg 53%
    20:00 +15°C° 0,1 mm 1 m/s 631 mmHg 57%
    21:00 +13°C° 0,1 mm 1 m/s 630 mmHg 61%
    22:00 +13°C° 0,1 mm 1 m/s 630 mmHg 59%
    23:00 +13°C° 0,1 mm 1 m/s 630 mmHg 58%
    Arată mai mult